Location: Newark
(50.0306°N, 2.3272°E)
Time: 22:45:04
(UTC+00:00)

Vanguard 1 - Pass Details

Date: 15 December 2019
Orbit: 651 x 3832 km, 34.2° (Epoch: 21 January)

Event Time Altitude Azimuth Distance (km) Brightness Sun altitude
Exits shadow 02:35:16 35° 179° (S) 5,074 13.3 -47.6°
Maximum altitude 02:41:14 40° 154° (SSE) 4,876 13.4 -46.7°
Drops below altitude 10° 02:59:52 10° 95° (E) 6,249 14.7 -43.9°
Sets 03:04:29 0° 88° (E) 6,936 15.2 -43.1°
